FW1246 Weather Reports


Display with metric or nautical units.
time (UTC)temp
F
wind
direction
speed
MPH
gust
MPH
rain 1hr
in
rain 24hr
in
rain mn
in
humidity
%
barometer
mb
20190721071020 71 262 0.0 2.0 0.00 0.00 0.00 92 1011.7
20190721070520 71 262 1.0 2.0 0.00 0.00 0.00 92 1011.7
20190721070033 71 262 1.0 2.0 0.00 0.00 0.00 92 1011.9
20190721065535 71 262 1.0 1.0 0.00 0.00 0.00 92 1011.9
20190721065026 71 262 0.0 2.0 0.00 0.00 0.00 91 1011.9
20190721064527 71 262 1.0 2.0 0.00 0.00 0.00 91 1011.9
20190721064021 71 261 1.0 2.0 0.00 0.00 0.00 91 1011.9
20190721063542 71 261 1.0 2.0 0.00 0.00 0.00 91 1011.9
20190721063032 71 261 0.0 1.0 0.00 0.00 0.00 90 1011.9
20190721062529 71 261 0.0 2.0 0.00 0.00 0.00 90 1011.9
20190721062016 72 262 1.0 2.0 0.00 0.00 0.00 90 1011.8
20190721061536 72 262 1.0 2.0 0.00 0.00 0.00 90 1011.9
20190721061030 72 261 0.0 2.0 0.00 0.00 0.00 90 1011.9
20190721060531 72 262 0.0 2.0 0.00 0.00 0.00 90 1011.9
20190721060018 72 262 1.0 2.0 0.00 0.00 0.00 90 1012.0
20190721055540 72 262 1.0 3.0 0.00 0.00 0.00 90 1012.1
20190721055034 72 262 2.0 4.0 0.00 0.00 0.00 90 1012.2
20190721054533 72 261 3.0 8.0 0.00 0.00 0.00 90 1012.2
20190721054024 72 260 3.0 9.0 0.00 0.00 0.00 89 1012.2
20190721053525 72 250 5.0 10.0 0.00 0.00 0.00 90 1012.3
20190721053018 72 260 6.0 11.0 0.00 0.00 0.00 90 1012.3
20190721052534 72 248 6.0 12.0 0.00 0.00 0.00 90 1012.3
20190721052027 72 261 8.0 12.0 0.00 0.00 0.00 90 1012.3
20190721051521 72 263 7.0 11.0 0.00 0.00 0.00 89 1012.3
20190721051019 72 237 5.0 11.0 0.00 0.00 0.00 89 1012.3
20190721050538 72 257 7.0 10.0 0.00 0.00 0.00 89 1012.2
20190721050028 72 244 5.0 12.0 0.00 0.00 0.00 89 1012.2
20190721045520 72 254 8.0 12.0 0.00 0.00 0.00 89 1012.2
20190721045019 72 269 7.0 14.0 0.00 0.00 0.00 89 1012.2
20190721044541 72 240 7.0 14.0 0.00 0.00 0.00 89 1012.2
20190721044034 72 242 8.0 15.0 0.00 0.00 0.00 89 1012.2
20190721043536 73 260 10.0 15.0 0.00 0.00 0.00 88 1012.1
20190721043028 73 244 9.0 13.0 0.00 0.00 0.00 88 1012.2
20190721042520 73 250 10.0 13.0 0.00 0.00 0.00 87 1012.2
20190721042021 73 234 8.0 15.0 0.00 0.00 0.00 88 1012.2
20190721041542 73 248 10.0 16.0 0.00 0.00 0.00 87 1012.2
20190721041035 73 250 10.0 16.0 0.00 0.00 0.00 87 1012.1
20190721040530 73 240 11.0 15.0 0.00 0.00 0.00 87 1012.1
20190721040028 73 250 10.0 15.0 0.00 0.00 0.00 86 1012.1
20190721035520 73 240 11.0 15.0 0.00 0.00 0.00 86 1012.1
20190721035020 73 230 9.0 13.0 0.00 0.00 0.00 86 1012.0
20190721034532 73 240 7.0 14.0 0.00 0.00 0.00 86 1012.0
20190721034032 73 244 12.0 14.0 0.00 0.00 0.00 86 1011.9
20190721033524 74 269 7.0 12.0 0.00 0.00 0.00 85 1011.8
20190721033024 74 254 7.0 11.0 0.00 0.00 0.00 85 1011.8
20190721032517 74 245 6.0 13.0 0.00 0.00 0.00 85 1011.8
20190721032034 74 259 9.0 13.0 0.00 0.00 0.00 85 1011.8
20190721031527 74 255 9.0 13.0 0.00 0.00 0.00 85 1011.7
20190721031027 74 259 8.0 16.0 0.00 0.00 0.00 85 1011.7
20190721030523 74 248 11.0 16.0 0.00 0.00 0.00 84 1011.7
20190721030041 74 238 8.0 12.0 0.00 0.00 0.00 84 1011.6
20190721025534 74 257 9.0 12.0 0.00 0.00 0.00 84 1011.5
20190721025033 75 250 6.0 11.0 0.00 0.00 0.00 83 1011.4
20190721024525 75 260 7.0 11.0 0.00 0.00 0.00 83 1011.4
20190721024019 75 250 6.0 11.0 0.00 0.00 0.00 82 1011.3
20190721023521 75 251 6.0 10.0 0.00 0.00 0.00 82 1011.2
20190721023040 75 259 8.0 10.0 0.00 0.00 0.00 82 1011.1
20190721022534 75 208 6.0 9.0 0.00 0.00 0.00 82 1011.1
20190721022029 76 248 4.0 8.0 0.00 0.00 0.00 82 1011.0
20190721021528 76 225 5.0 10.0 0.00 0.00 0.00 81 1010.9
20190721021022 76 250 7.0 11.0 0.00 0.00 0.00 80 1010.8
20190721020525 77 244 5.0 11.0 0.00 0.00 0.00 79 1010.8
20190721020017 77 252 4.0 9.0 0.00 0.00 0.00 79 1010.8
20190721015517 77 247 6.0 10.0 0.00 0.00 0.00 79 1010.7
20190721015030 77 236 5.0 11.0 0.00 0.00 0.00 79 1010.6
20190721014532 77 259 7.0 11.0 0.00 0.00 0.00 78 1010.5
20190721014025 77 253 6.0 10.0 0.00 0.00 0.00 78 1010.5
20190721013526 78 259 6.0 9.0 0.00 0.00 0.00 78 1010.4
20190721013020 78 258 7.0 9.0 0.00 0.00 0.00 78 1010.3
20190721012540 78 243 6.0 9.0 0.00 0.00 0.00 79 1010.2
20190721012033 78 240 4.0 10.0 0.00 0.00 0.00 79 1010.1
20190721011532 78 201 8.0 12.0 0.00 0.00 0.00 79 1010.1
20190721011025 78 205 8.0 12.0 0.00 0.00 0.00 79 1010.0
20190721010545 78 202 9.0 12.0 0.00 0.00 0.00 79 1010.1
20190721010036 78 219 8.0 11.0 0.00 0.00 0.00 80 1009.9
20190721005536 78 191 8.0 11.0 0.00 0.00 0.00 80 1009.8
20190721005027 78 198 5.0 9.0 0.00 0.00 0.00 80 1009.8
20190721004521 78 200 5.0 10.0 0.00 0.00 0.00 80 1009.7
20190721004019 78 211 6.0 10.0 0.00 0.00 0.00 80 1009.6
20190721003540 78 211 7.0 10.0 0.00 0.00 0.00 81 1009.5
20190721003038 79 192 4.0 9.0 0.00 0.00 0.00 81 1009.5
20190721002517 79 209 5.0 9.0 0.00 0.00 0.00 80 1009.4
20190721002028 79 200 7.0 9.0 0.00 0.00 0.00 80 1009.4
20190721001530 79 183 5.0 8.0 0.00 0.00 0.00 80 1009.3
20190721001022 79 179 5.0 9.0 0.00 0.00 0.00 79 1009.3
20190721000524 79 215 5.0 9.0 0.00 0.00 0.00 79 1009.2
20190721000033 79 184 5.0 10.0 0.00 0.00 0.00 78 1009.1
20190720235532 80 217 5.0 10.0 0.00 0.00 0.00 78 1009.1
20190720235023 80 208 6.0 11.0 0.00 0.00 0.00 78 1009.0
20190720234526 80 201 7.0 11.0 0.00 0.00 0.00 77 1009.0
20190720234018 80 193 7.0 12.0 0.00 0.00 0.00 78 1009.0
20190720233540 80 171 6.0 12.0 0.00 0.00 0.00 78 1008.9
20190720233034 81 211 7.0 14.0 0.00 0.00 0.00 77 1008.7
20190720232536 81 214 7.0 14.0 0.00 0.00 0.00 76 1008.6
20190720232029 82 219 7.0 9.0 0.00 0.00 0.00 76 1008.6
20190720231523 82 196 7.0 9.0 0.00 0.00 0.00 75 1008.6
20190720231023 82 192 6.0 10.0 0.00 0.00 0.00 75 1008.5
20190720230519 82 188 4.0 11.0 0.00 0.00 0.00 75 1008.4
20190720230019 83 213 6.0 11.0 0.00 0.00 0.00 74 1008.3
20190720225531 83 217 6.0 11.0 0.00 0.00 0.00 74 1008.3
20190720225033 83 223 8.0 11.0 0.00 0.00 0.00 73 1008.2
20190720224526 83 203 6.0 11.0 0.00 0.00 0.00 73 1008.1
20190720224027 84 215 8.0 11.0 0.00 0.00 0.00 72 1008.0
20190720223522 84 207 6.0 10.0 0.00 0.00 0.00 71 1008.0
20190720223023 84 206 8.0 12.0 0.00 0.00 0.00 71 1007.9
20190720222530 84 225 6.0 11.0 0.00 0.00 0.00 71 1007.8
20190720222027 84 193 5.0 10.0 0.00 0.00 0.00 70 1007.8
20190720221536 85 213 8.0 10.0 0.00 0.00 0.00 69 1007.8
20190720221018 85 216 4.0 8.0 0.00 0.00 0.00 68 1007.7
20190720220529 86 206 4.0 8.0 0.00 0.00 0.00 67 1007.6
20190720220028 86 184 4.0 8.0 0.00 0.00 0.00 66 1007.6
20190720215519 87 190 4.0 6.0 0.00 0.00 0.00 65 1007.6
20190720215019 87 158 2.0 6.0 0.00 0.00 0.00 66 1007.5
20190720214530 87 158 4.0 9.0 0.00 0.00 0.00 65 1007.5
20190720214030 87 159 5.0 9.0 0.00 0.00 0.00 66 1007.5
20190720213519 87 181 2.0 5.0 0.00 0.00 0.00 66 1007.5
20190720213020 86 184 3.0 5.0 0.00 0.00 0.00 67 1007.5
20190720212534 86 190 3.0 8.0 0.00 0.00 0.00 67 1007.5
20190720212035 86 126 5.0 9.0 0.00 0.00 0.00 67 1007.4
20190720211528 86 106 6.0 10.0 0.00 0.00 0.00 66 1007.4
20190720211028 87 134 6.0 10.0 0.00 0.00 0.00 66 1007.4
20190720210520 87 153 6.0 9.0 0.00 0.00 0.00 64 1007.4
20190720210112 88 183 2.0 4.0 0.00 0.00 0.00 63 1007.5
20190720205533 88 183 2.0 6.0 0.00 0.00 0.00 64 1007.6
20190720205022 87 183 2.0 8.0 0.00 0.00 0.00 65 1007.6
20190720204521 87 213 4.0 9.0 0.00 0.00 0.00 65 1007.5
20190720204034 87 123 5.0 8.0 0.00 0.00 0.00 63 1007.6
20190720203532 87 234 3.0 7.0 0.00 0.00 0.00 65 1007.6
20190720203025 86 234 3.0 11.0 0.00 0.00 0.00 65 1007.6
20190720202524 86 257 6.0 11.0 0.00 0.00 0.00 65 1007.7
20190720202036 86 183 7.0 10.0 0.00 0.00 0.00 65 1007.7
20190720201537 87 235 5.0 9.0 0.00 0.00 0.00 64 1007.8
20190720201027 87 204 5.0 9.0 0.00 0.00 0.00 65 1007.9
20190720200524 86 173 3.0 9.0 0.00 0.00 0.00 65 1007.9
20190720200042 86 214 3.0 7.0 0.00 0.00 0.00 66 1007.8
20190720195531 86 197 2.0 9.0 0.00 0.00 0.00 66 1007.9
20190720195024 86 193 6.0 10.0 0.00 0.00 0.00 66 1008.0
20190720194522 86 240 4.0 8.0 0.00 0.00 0.00 65 1008.0
20190720194040 86 241 3.0 9.0 0.00 0.00 0.00 67 1008.0
20190720193528 85 215 3.0 14.0 0.00 0.00 0.00 67 1008.2
20190720193047 85 192 7.0 14.0 0.00 0.00 0.00 67 1008.3
20190720192537 85 172 6.0 11.0 0.00 0.00 0.00 67 1008.4
20190720192037 85 159 5.0 11.0 0.00 0.00 0.00 69 1008.6
20190720191526 84 160 6.0 11.0 0.00 0.00 0.00 70 1008.7
20190720191023 85 186 4.0 11.0 0.00 0.00 0.00 69 1008.8
20190720190531 85 208 6.0 12.0 0.00 0.00 0.00 67 1008.9
20190720190030 85 222 3.0 9.0 0.00 0.00 0.00 69 1008.9
20190720185523 85 248 5.0 13.0 0.00 0.00 0.00 67 1009.0
20190720185021 85 151 8.0 14.0 0.00 0.00 0.00 69 1009.2
20190720184533 85 138 10.0 14.0 0.00 0.00 0.00 69 1009.2
20190720184030 85 104 3.0 14.0 0.00 0.00 0.00 70 1009.4
20190720183520 85 117 9.0 14.0 0.00 0.00 0.00 71 1009.6
20190720183018 84 109 6.0 12.0 0.00 0.00 0.00 71 1009.6
20190720182531 84 88 8.0 12.0 0.00 0.00 0.00 70 1009.8
20190720182029 84 121 5.0 11.0 0.00 0.00 0.00 72 1009.9
20190720181520 83 97 3.0 8.0 0.00 0.00 0.00 74 1010.0
20190720181019 82 90 5.0 8.0 0.00 0.00 0.00 75 1010.1
20190720180540 82 240 5.0 8.0 0.00 0.00 0.00 75 1010.2
20190720180032 82 223 5.0 8.0 0.00 0.00 0.00 75 1010.3
20190720175525 82 216 4.0 10.0 0.00 0.00 0.00 75 1010.3
20190720175025 82 223 4.0 11.0 0.00 0.00 0.00 76 1010.5
20190720174543 81 227 4.0 7.0 0.00 0.00 0.00 75 1010.5
20190720174035 82 159 5.0 9.0 0.00 0.00 0.00 75 1010.7
20190720173527 82 209 7.0 9.0 0.00 0.00 0.00 75 1010.7
20190720173026 81 347 2.0 6.0 0.00 0.00 0.00 76 1010.8
20190720172518 81 228 3.0 6.0 0.00 0.00 0.00 75 1011.0
20190720172037 81 247 1.0 5.0 0.00 0.00 0.00 77 1011.1
20190720171528 80 247 3.0 7.0 0.00 0.00 0.00 78 1011.2
20190720171029 80 257 3.0 8.0 0.00 0.00 0.00 77 1011.2
20190720170522 80 269 4.0 8.0 0.00 0.00 0.00 77 1011.3
20190720170020 80 271 2.0 6.0 0.00 0.00 0.00 78 1011.4
20190720165538 80 271 2.0 7.0 0.00 0.00 0.00 79 1011.4
20190720165030 79 285 4.0 7.0 0.00 0.00 0.00 79 1011.5
20190720164520 79 223 5.0 7.0 0.00 0.00 0.00 78 1011.6
20190720164021 79 313 4.0 8.0 0.00 0.00 0.00 79 1011.6
20190720163542 80 265 6.0 8.0 0.00 0.00 0.00 78 1011.6
20190720163035 80 273 4.0 8.0 0.00 0.00 0.00 78 1011.7
20190720162528 80 217 2.0 6.0 0.00 0.00 0.00 78 1011.8
20190720162027 79 217 3.0 6.0 0.00 0.00 0.00 79 1011.8
20190720161545 79 217 2.0 5.0 0.00 0.00 0.00 80 1011.9
20190720161036 79 217 3.0 5.0 0.00 0.00 0.00 79 1012.0
20190720160532 79 271 2.0 4.0 0.00 0.00 0.00 80 1012.0
20190720160030 79 271 2.0 4.0 0.00 0.00 0.00 80 1012.1
20190720155524 79 269 3.0 4.0 0.00 0.00 0.00 79 1012.1
20190720155021 79 269 3.0 4.0 0.00 0.00 0.00 80 1012.1
20190720154529 78 272 2.0 4.0 0.00 0.00 0.00 81 1012.2
20190720154026 78 271 2.0 6.0 0.00 0.00 0.00 81 1012.2
20190720153545 78 221 2.0 6.0 0.00 0.00 0.00 81 1012.1
20190720153037 78 221 4.0 7.0 0.00 0.00 0.00 82 1012.1
20190720152529 78 242 3.0 9.0 0.00 0.00 0.00 81 1012.1
20190720152030 78 237 6.0 9.0 0.00 0.00 0.00 82 1012.1
20190720151523 78 262 4.0 6.0 0.00 0.00 0.00 81 1012.1
20190720151024 78 196 3.0 6.0 0.00 0.00 0.00 82 1012.2
20190720150539 78 196 3.0 6.0 0.00 0.00 0.00 81 1012.2
20190720150036 78 196 1.0 5.0 0.00 0.00 0.00 82 1012.2
20190720145528 77 196 4.0 5.0 0.00 0.00 0.00 82 1012.3
20190720145030 77 197 2.0 6.0 0.00 0.00 0.00 83 1012.2
20190720144522 77 197 5.0 7.0 0.00 0.00 0.00 82 1012.2
20190720144041 77 196 4.0 7.0 0.00 0.00 0.00 82 1012.2
20190720143536 77 207 4.0 7.0 0.00 0.00 0.00 82 1012.2
20190720143035 77 146 4.0 8.0 0.00 0.00 0.00 82 1012.1
20190720142528 77 208 1.0 6.0 0.00 0.00 0.00 83 1012.2
20190720142041 77 208 4.0 6.0 0.00 0.00 0.00 82 1012.2
20190720141534 77 208 2.0 6.0 0.00 0.00 0.00 83 1012.2
20190720141033 77 208 4.0 6.0 0.00 0.00 0.00 83 1012.2
20190720140520 76 224 1.0 6.0 0.00 0.00 0.00 85 1012.1
20190720140039 76 224 3.0 6.0 0.00 0.00 0.00 84 1012.1
20190720135527 75 224 1.0 5.0 0.00 0.00 0.00 85 1012.1
20190720135026 75 224 3.0 5.0 0.00 0.00 0.00 85 1012.1
20190720134536 75 224 3.0 8.0 0.00 0.00 0.00 86 1012.0
20190720134035 75 224 5.0 8.0 0.00 0.00 0.00 86 1012.0
20190720133528 75 262 4.0 7.0 0.00 0.00 0.00 87 1012.0
20190720133028 74 236 2.0 5.0 0.00 0.00 0.00 87 1012.0
20190720132520 74 236 4.0 7.0 0.00 0.00 0.00 87 1012.0
20190720132040 74 236 4.0 7.0 0.00 0.00 0.00 87 1012.0
20190720131531 74 237 4.0 7.0 0.00 0.00 0.00 87 1011.9
20190720131030 74 231 3.0 6.0 0.00 0.00 0.00 88 1011.8
20190720130525 74 231 3.0 6.0 0.00 0.00 0.00 88 1011.8
20190720130024 73 233 4.0 6.0 0.00 0.00 0.00 88 1011.7
20190720125536 73 229 5.0 6.0 0.00 0.00 0.00 88 1011.7
20190720125035 73 231 4.0 5.0 0.00 0.00 0.00 88 1011.7
20190720124529 73 231 4.0 5.0 0.00 0.00 0.00 88 1011.5
20190720124030 73 229 4.0 5.0 0.00 0.00 0.00 89 1011.6
20190720123522 73 252 3.0 5.0 0.00 0.00 0.00 89 1011.6
20190720123040 73 252 4.0 5.0 0.00 0.00 0.00 89 1011.6
20190720122531 73 252 3.0 4.0 0.00 0.00 0.00 89 1011.6
20190720122028 73 252 3.0 5.0 0.00 0.00 0.00 89 1011.4
20190720121521 72 252 2.0 5.0 0.00 0.00 0.00 89 1011.3
20190720121041 72 252 2.0 5.0 0.00 0.00 0.00 89 1011.2
20190720120533 72 252 3.0 5.0 0.00 0.00 0.00 88 1011.2
20190720120108 73 254 2.0 4.0 0.00 0.00 0.00 88 1011.1
20190720115530 73 254 3.0 4.0 0.00 0.00 0.00 88 1011.1
20190720115023 73 254 3.0 4.0 0.00 0.00 0.00 88 1011.1
20190720114545 73 254 3.0 5.0 0.00 0.00 0.00 88 1011.0
20190720114036 73 253 4.0 7.0 0.00 0.00 0.00 88 1011.0
20190720113537 73 252 5.0 7.0 0.00 0.00 0.00 88 1011.0
20190720113028 73 257 3.0 6.0 0.00 0.00 0.00 88 1010.9
20190720112521 73 257 3.0 6.0 0.00 0.00 0.00 88 1010.9
20190720112022 73 255 4.0 5.0 0.00 0.00 0.00 89 1010.9
20190720111543 73 218 2.0 4.0 0.00 0.00 0.00 89 1011.0
20190720111038 73 218 3.0 5.0 0.00 0.00 0.00 89 1011.0
20190720110532 73 218 3.0 6.0 0.00 0.00 0.00 89 1011.0
20190720110032 73 218 4.0 7.0 0.00 0.00 0.00 89 1010.9
20190720105525 73 221 5.0 7.0 0.00 0.00 0.00 89 1010.8
20190720105026 73 216 4.0 6.0 0.00 0.00 0.00 89 1010.8
20190720104538 73 216 4.0 6.0 0.00 0.00 0.00 89 1010.7
20190720104039 73 207 3.0 5.0 0.00 0.00 0.00 89 1010.7
20190720103530 73 202 4.0 6.0 0.00 0.00 0.00 89 1010.7
20190720103030 73 202 5.0 6.0 0.00 0.00 0.00 89 1010.7
20190720102523 73 195 4.0 5.0 0.00 0.00 0.00 89 1010.7
20190720102024 73 195 3.0 5.0 0.00 0.00 0.00 89 1010.8
20190720101536 73 195 3.0 6.0 0.00 0.00 0.00 89 1010.7
20190720101037 73 195 3.0 6.0 0.00 0.00 0.00 89 1010.7
20190720100531 73 195 2.0 3.0 0.00 0.00 0.00 89 1010.7
20190720100032 73 195 2.0 4.0 0.00 0.00 0.00 89 1010.7
20190720095525 73 195 3.0 5.0 0.00 0.00 0.00 89 1010.7
20190720095042 73 195 2.0 4.0 0.00 0.00 0.00 89 1010.7
20190720094535 73 195 2.0 5.0 0.00 0.00 0.00 89 1010.7
20190720094035 73 195 2.0 6.0 0.00 0.00 0.00 89 1010.8
20190720093527 73 195 4.0 6.0 0.00 0.00 0.00 89 1010.7
20190720093022 73 195 3.0 4.0 0.00 0.00 0.00 90 1010.7
20190720092522 73 195 3.0 5.0 0.00 0.00 0.00 90 1010.7
20190720092042 73 195 3.0 5.0 0.00 0.00 0.00 90 1010.7
20190720091535 72 195 3.0 5.0 0.00 0.00 0.00 90 1010.7
20190720091030 72 195 3.0 5.0 0.00 0.00 0.00 89 1010.7
20190720090532 73 195 4.0 5.0 0.00 0.00 0.00 90 1010.7
20190720090047 73 195 3.0 5.0 0.00 0.00 0.00 89 1010.6
20190720085521 73 195 4.0 5.0 0.00 0.00 0.00 89 1010.6
20190720085030 73 195 4.0 5.0 0.00 0.00 0.00 89 1010.6
20190720084528 73 195 3.0 4.0 0.00 0.00 0.00 89 1010.5
20190720084021 73 195 3.0 4.0 0.00 0.00 0.00 89 1010.5
20190720083521 73 195 3.0 3.0 0.00 0.00 0.00 89 1010.4
20190720083035 73 195 2.0 3.0 0.00 0.00 0.00 89 1010.4
20190720082533 73 195 0.0 3.0 0.00 0.00 0.00 89 1010.2
20190720082028 73 195 1.0 4.0 0.00 0.00 0.00 89 1010.2
20190720081530 73 195 3.0 5.0 0.00 0.00 0.00 89 1010.2
20190720081022 73 195 3.0 4.0 0.00 0.00 0.00 89 1010.3
20190720080542 73 195 3.0 4.0 0.00 0.00 0.00 89 1010.3
20190720080033 73 195 2.0 4.0 0.00 0.00 0.00 89 1010.3
20190720075533 73 195 2.0 3.0 0.00 0.00 0.00 89 1010.4
20190720075025 73 195 1.0 3.0 0.00 0.00 0.00 89 1010.4
20190720074546 73 195 2.0 4.0 0.00 0.00 0.00 89 1010.4
20190720074036 73 195 3.0 5.0 0.00 0.00 0.00 88 1010.5
20190720073535 73 195 3.0 5.0 0.00 0.00 0.00 88 1010.6
20190720073023 73 195 3.0 5.0 0.00 0.00 0.00 88 1010.7
20190720072545 73 195 4.0 5.0 0.00 0.00 0.00 88 1010.7
20190720072037 73 203 4.0 5.0 0.00 0.00 0.00 88 1010.8
20190720071535 73 204 3.0 5.0 0.00 0.00 0.00 88 1010.9